OpenBCM V1.08-5-g2f4a (Linux)

Packet Radio Mailbox

IZ3LSV

[San Dona' di P. JN]

 Login: GUEST





  
I0OJJ  > KEPS     10.08.25 01:40l 322 Lines 15292 Bytes #51 (0) @ AMSAT
BID : ORB25222.1
Read: GUEST
Subj: 2Line Orbital Elements 25222.AMSAT
Path: IZ3LSV<IK6IHL<IK7NXU<HB9ON<HB9ON<PI8ZTM<VK2IO<VK3AT<VE3QBZ<VE3CGR<
      VE3TOK<IR0AAB<I0OJJ
Sent: 250810/0025z @:I0OJJ.ITA.EU [Rome] obcm1.08-10-g596e
From: I0OJJ @ I0OJJ.ITA.EU (Gustavo)
To:   KEPS @ AMSAT
X-Info: This message was generated automatically


QST de W1STR

AMSAT Orbital Elements for Amateur Satellites in TLE Format
From Orbital Analysis Office
New England Sci-Tech STEM Education Center
Natick, MA August 10, 2025
To all radio amateurs


These element sets describe the orbits of various satellites 
in use by the amateur radio community. For details see:
www.amsat.org/keplerian-elements-formats/

A daily update of element sets is available at:
www.amsat.org/tle/daily-bulletin.txt
or without bulletin text:
www.amsat.org/tle/dailytle.txt


AO-07
1 07530U 74089B   25221.62251022 -.00000030  00000-0  10404-3 0  9991
2 07530 101.9957 226.5398 0012315   7.6829 102.4653 12.53690700321479
UO-11
1 14781U 84021B   25221.46604314  .00001311  00000-0  14320-3 0  9995
2 14781  97.7592 186.6511 0008996 128.3591 231.8436 14.89536005210709
AO-27
1 22825U 93061C   25221.75646888  .00000113  00000-0  60457-4 0  9993
2 22825  98.7328 283.6050 0007346 297.1026  62.9407 14.30816268662730
FO-29
1 24278U 96046B   25221.67518313  .00000010  00000-0  45671-4 0  9992
2 24278  98.5665 107.5091 0349846 184.1466 175.6755 13.53251470431286
NOAA-15
1 25338U 98030A   25221.81354082  .00000233  00000-0  11341-3 0  9995
2 25338  98.5337 245.4656 0010392 173.4606 186.6713 14.27009546417138
GO-32
1 25397U 98043D   25221.52689769  .00000079  00000-0  54243-4 0  9992
2 25397  98.9755 201.9323 0002138  58.6757 301.4630 14.24328131406964
ISS
1 25544U 98067A   25221.83158705  .00014202  00000-0  25255-3 0  9990
2 25544  51.6349  41.1807 0001364 173.8936 186.2070 15.50428739523482
NO-44
1 26931U 01043C   25221.55986694  .00000138  00000-0  82663-4 0  9994
2 26931  67.0527 330.1719 0006605 276.4133  83.6217 14.31759965245836
SO-50
1 27607U 02058C   25221.49948383  .00001098  00000-0  15292-3 0  9997
2 27607  64.5538  12.4656 0062766 320.9310  38.7270 14.81771545218252
CO-55
1 27844U 03031E   25221.59842178  .00000338  00000-0  16608-3 0  9996
2 27844  98.6773 229.0878 0009950  17.8648 342.2879 14.24036861147327
CO-57
1 27848U 03031J   25221.01308813  .00000272  00000-0  13898-3 0  9995
2 27848  98.6800 228.4697 0010222  35.9616 324.2248 14.23365463146965
RS-22
1 27939U 03042A   25221.84578356  .00001233  00000-0  20259-3 0  9997
2 27939  98.3334  32.7992 0011574 169.8588 329.2866 14.72479360169844
CO-58
1 28895U 05043F   25220.37342607  .00001389  00000-0  23343-3 0  9996
2 28895  98.2573   5.5014 0015615 115.8379 244.4439 14.71186723 55735
CO-65
1 32785U 08021C   25221.58672114  .00006117  00000-0  43549-3 0  9995
2 32785  97.7901 193.2375 0010002  18.8475 341.3120 15.04957468938256
CO-66
1 32791U 08021J   25221.49332994  .00016053  00000-0  74781-3 0  9993
2 32791  97.7314 202.9587 0002274 357.3519   2.7702 15.19988876939827
RS-30
1 32953U 08025A   25221.88789948  .00000011  00000-0  10127-4 0  9997
2 32953  82.5039 189.0530 0017907 272.9303  86.9727 12.43166984781141
NOAA-19
1 33591U 09005A   25221.86305561  .00000183  00000-0  12161-3 0  9997
2 33591  98.9937 286.9011 0013715 186.3362 173.7638 14.13394383850761
SRMSAT
1 37841U 11058D   25221.10662524  .00000403  00000-0  75461-4 0  9990
2 37841  19.9709 148.2701 0011674  11.6073  18.5909 14.11451125713671
ZACUBE-1
1 39417U 13066B   25221.88433394  .00005173  00000-0  44480-3 0  9993
2 39417  97.7827 178.6053 0043169 204.9606 154.9529 14.97129455634089
Delfi-N3xt
1 39428U 13066N   25221.72615618  .00007010  00000-0  70289-3 0  9997
2 39428  97.8312 138.7111 0084422 157.8975 202.5917 14.88988518628352
GOMX-1
1 39430U 13066Q   25221.84184149  .00001910  00000-0  30112-3 0  9997
2 39430  97.6778  76.7346 0132070 357.0338   3.0071 14.67855612624390
LO-74
1 39440U 13066AA  25221.85127537  .00005514  00000-0  55310-3 0  9998
2 39440  97.8512 166.0085 0060837 339.4270  20.4498 14.90355450631768
AO-73
1 39444U 13066AE  25221.34312978  .00005383  00000-0  39715-3 0  9996
2 39444  97.7859 183.5324 0041648 177.6296 182.5134 15.03012716632717
DTUSAT-2
1 40030U 14033W   25221.37940344  .00005938  00000-0  38016-3 0  9990
2 40030  98.0594 196.1827 0008289 202.4537 157.6329 15.08953447605569
EO-80
1 40032U 14033Y   25221.46288509  .00006826  00000-0  43527-3 0  9990
2 40032  98.0479 195.8404 0009646 144.9611 215.2252 15.09029871605552
LILACSAT-2
1 40908U 15049K   25221.83710878  .00015215  00000-0  38064-3 0  9992
2 40908  97.5040 243.7094 0007043 305.6160  54.4429 15.40182851547652
IO-86
1 40931U 15052B   25151.18580175  .00001241  00000-0  78118-4 0  9996
2 40931   6.0006  24.0987 0012733 338.8432  21.1169 14.78805930523159
Horyu-4
1 41340U 16012D   25220.96107754  .00026293  00000-0  64960-3 0  9992
2 41340  30.9965  85.1883 0007580 331.8925  28.1311 15.39229710522093
Lapan A3
1 41603U 16040E   25221.84611638  .00004412  00000-0  15302-3 0  9999
2 41603  97.1386 224.0683 0012435  57.1344 303.1093 15.30234861507154
CAS-2T
1 41847U 16066G   25221.46953965  .00000716  00000-0  11098-3 0  9998
2 41847  98.4175 295.3940 0345405 354.4842   5.2584 14.43642288459805
CAS-4B
1 42759U 17034B   25221.70971574  .00127149  00000-0  91279-3 0  9999
2 42759  43.0051 315.3710 0022281 357.1796   2.8943 15.72169623452194
CAS-4A
1 42761U 17034D   25221.68156453  .00142538  00000-0  93484-3 0  9999
2 42761  43.0088 311.8628 0023144   2.2501 357.8469 15.74187233452226
TechnoSat
1 42829U 17042E   25221.54012628  .00004273  00000-0  32874-3 0  9992
2 42829  97.3960  27.3400 0017993  75.2171 285.1046 15.02068411439874
AO-91
1 43017U 17073E   25221.88664198  .00010380  00000-0  52394-3 0  9993
2 43017  97.5166  91.1148 0168467 318.1324  40.7118 15.05692766418437
S-Net D
1 43186U 18014G   25221.31513868  .00004431  00000-0  25924-3 0  9990
2 43186  97.5560 123.6017 0009637  27.7973 332.3771 15.12326971411555
S-Net B
1 43187U 18014H   25221.18900486  .00004665  00000-0  27285-3 0  9993
2 43187  97.5566 123.4518 0010216  22.9530 337.2155 15.12306596411536
S-Net A
1 43188U 18014J   25221.31531562  .00004453  00000-0  26049-3 0  9996
2 43188  97.5573 123.7347 0010124  23.3352 336.8336 15.12332671411554
S-Net C
1 43189U 18014K   25221.45622343  .00004746  00000-0  27747-3 0  9991
2 43189  97.5589 123.8990 0011341  14.4712 345.6841 15.12305615410129
Ten-Koh
1 43677U 18084G   25221.47213282  .00002185  00000-0  17704-3 0  9997
2 43677  98.0836  36.1381 0008654  69.3102 290.9048 15.00817112369375
PO-101
1 43678U 18084H   25221.82315193  .00002553  00000-0  21834-3 0  9999
2 43678  98.1051  40.3043 0008637  85.6175 274.6033 14.98562284369556
QO-100
1 43700U 18090A   25221.54695613  .00000145  00000-0  00000-0 0  9993
2 43700   0.0238 109.1663 0001195  35.2700  36.5658  1.00268439 24550
MinXSS-2
1 43758U 18099A   25221.16138459  .00017176  00000-0  64220-3 0  9992
2 43758  97.4985 287.4481 0009918 304.2373  55.7926 15.27362754366218
AO-95
1 43770U 18099N   25221.43776590  .00009792  00000-0  48155-3 0  9994
2 43770  97.4876 278.8736 0010196   9.5602 350.5824 15.18180661365787
SNUSat 2
1 43782U 18099AA  25221.10778263  .00007930  00000-0  42321-3 0  9991
2 43782  97.4556 274.7981 0010388 307.7404  52.2886 15.15362458365662
SnugLite
1 43784U 18099AC  25221.12507313  .00009368  00000-0  45713-3 0  9996
2 43784  97.4370 274.5046 0001979 322.2399  37.8696 15.18505451365820
ITASat 1
1 43786U 18099AE  25221.18244321  .00005896  00000-0  33140-3 0  9994
2 43786  97.4523 274.1988 0013839   3.6495 356.4835 15.13589270365627
EAGLET 1
1 43790U 18099AJ  25221.41314486  .00004021  00000-0  25452-3 0  9991
2 43790  97.4727 274.1731 0011338 348.8241  11.2734 15.09494598365244
ESEO
1 43792U 18099AL  25221.39677881  .00001739  00000-0  13407-3 0  9991
2 43792  97.4451 266.5957 0010917 320.1867  39.8556 15.02813760364958
CSIM
1 43793U 18099AM  25221.21166546  .13619297  25930-5  68059-3 0  9999
2 43793  97.4554 304.9540 0017217 272.8328  87.1002 16.40904822367265
JO-97
1 43803U 18099AX  25221.42240160  .00011732  00000-0  51602-3 0  9997
2 43803  97.4622 279.9886 0005716 294.1119  65.9519 15.22018304366023
Suomi 100
1 43804U 18099AY  25221.47244405  .00011029  00000-0  52347-3 0  9995
2 43804  97.4688 279.1536 0010534 297.9347  62.0821 15.19379430365948
ISAT
1 43879U 18111D   25221.74066356  .00026960  00000-0  87214-3 0  9990
2 43879  97.5908 137.5578 0007389   0.3809 359.7436 15.32009569361034
UWE-4
1 43880U 18111E   25221.49774104  .00020518  00000-0  76338-3 0  9999
2 43880  97.5852 135.3408 0011257   8.6793 351.4638 15.27474459362924
Sparrow
1 43881U 18111F   25221.21415985  .00025006  00000-0  77622-3 0  9993
2 43881  97.6061 140.1404 0007621  44.2082 315.9767 15.33345367363072
Prox-1
1 44339U 19036A   25221.75154381  .00014368  00000-0  17760-2 0  9993
2 44339  23.9977  19.6574 0007983  48.2253 311.8926 14.81033794327186
Taurus 1
1 44530U 19059C   25221.87541205  .00008200  00000-0  14885-2 0  9992
2 44530  98.6131   4.2229 0009285 198.8649 161.2210 14.66460804312923
Duchifat 3
1 44854U 19089C   25221.66824505  .00074418  00000-0  12025-2 0  9996
2 44854  36.9419 325.3933 0004893  89.1606 270.9713 15.51721539312421
TO-108
1 44881U 19093C   25221.85009778  .00001007  00000-0  12206-3 0  9995
2 44881  97.7897 296.2135 0014520  35.7164 324.5019 14.85708971305170
FloripaSat 1
1 44885U 19093G   25221.83730416  .00006628  00000-0  55091-3 0  9990
2 44885  97.8147 309.5832 0009729   1.5744 358.5508 14.99026051305925
RS-44
1 44909U 19096E   25221.30076192  .00000009  00000-0 -14232-4 0  9997
2 44909  82.5224 186.9375 0217909 153.3195 207.9318 12.79742414262455
